Regional Weather Roundup
Issued by NWS Bismarck, ND

Home | Current Version | Previous Version | Text Only | Print | Product List | Glossary On
Versions: 1 2 3 4 5 6 7 8 9 10 11 12 13 14 15 16 17 18 19 20 21 22 23 24 25 26 27 28 29 30 31 32 33 34 35 36 37 38 39 40 41 42 43 44 45 46 47 48 49 50
298
ASUS43 KBIS 022010
RWRBIS

NWR BROADCAST TEXT
NATIONAL WEATHER SERVICE BISMARCK ND
300 PM CDT MON MAY 02 2016

NOTE: "FAIR" INDICATES FEW OR NO CLOUDS BELOW 12,000 FEET WITH NO
SIGNIFICANT WEATHER AND/OR OBSTRUCTIONS TO VISIBILITY.


CITY           SKY/WX    TMP DP  RH WIND       PRES   REMARKS
WILLISTON      SUNNY     74  32  21 NE17G31   30.00F
MINOT          MOSUNNY   73  33  23 NE10G22   29.99S
MINOT AFB      MOSUNNY   67  38  34 E6        29.98S
BISMARCK       MOSUNNY   63  44  50 NE5       29.99S
DICKINSON      MOSUNNY   68  32  26 N21G28    29.96S
GARRISON         N/A     68  35  29 NE9G20    29.98S
HETTINGER ARPT CLOUDY    68  34  28 NW22G31   29.98F
JAMESTOWN      CLOUDY    58  40  51 S12       30.02R
BEACH          FAIR      68  32  26 N23G31    30.04F
CARRINGTON     MOCLDY    64  36  34 SE15G23   30.02S
HAZEN          FAIR      66  36  32 NE14G23   29.99S
LINTON         MOCLDY    59  48  67 S6        30.01S
MANDAN         FAIR      63  43  48 E10G16    29.99S
OAKES            N/A    N/A N/A N/A MISG        N/A
RUGBY          FAIR      63  37  39 SE8       30.00S
STANLEY        FAIR      68  32  26 VRB6G17   30.03S
WATFORD CITY   FAIR      72  32  23 N17G36    30.00F
$$

CITY           SKY/WX    TMP DP  RH WIND       PRES   REMARKS
GRAND FORKS    MOSUNNY   71  30  21 E8        29.97F
GRAND FORKS AF SUNNY     70  27  20 S5        29.98F
DEVILS LAKE    SUNNY     64  35  34 VRB7      30.01S
FARGO          SUNNY     68  26  20 E3        29.99S
CANDO          FAIR      66  36  32 S9G18     30.02S
CAVALIER       FAIR      70  34  26 SW3       29.98F
GRAFTON        FAIR      68  28  22 VRB5G12   30.00S
GWINNER        FAIR      64  34  32 SW10      30.02S
LANGDON        FAIR      70  32  24 CALM      30.00F
ROLLA          FAIR      64  32  29 SE12G17   30.02S
WALHALLA       FAIR      68  34  28 S5        29.99S
$$

CITY           SKY/WX    TMP DP  RH WIND       PRES   REMARKS
ABERDEEN       CLOUDY    57  42  57 NW14      30.03R
MOBRIDGE       CLOUDY    56  48  74 S9        29.99F
BUFFALO          N/A     65  35  33 NW21      29.97S
RAPID CITY     MOSUNNY   66  33  29 N23G35    30.05F
GLASGOW        SUNNY     74  36  25 NW13      30.06F
SIDNEY         SUNNY     73  36  25 N20G28    30.00F
WOLF POINT     SUNNY     77  37  23 NW15G22   30.02F
GLENDIVE       PTSUNNY   72  37  28 N18G29    30.05F
MILES CITY     MOSUNNY   70  36  28 NW13      30.08F
BAKER          CLOUDY    67  34  29 NW18G30   30.04F
$$

CITY           SKY/WX    TMP DP  RH WIND       PRES   REMARKS
BILLINGS       MOSUNNY   68  30  24 VRB5      30.14F
REGINA         MOSUNNY   73  30  20 N16       30.02S
ESTEVAN        MOSUNNY   75  30  19 VRB3      30.00F
$$





USA.gov is the U.S. government's official web portal to all federal, state and local government web resources and services.